Location: Coche
(10.4506°N, 66.9257°W)
Time: 10:31:55
(UTC+00:00)

Cosmos 1553 Rocket - Visible Passes

Search period start: 01 July 2022 00:00
Search period end: 11 July 2022 00:00
Orbit: 942 x 1007 km, 82.9° (Epoch: 30 June)

Date Brightness Start Highest point End Pass type
(mag) Time Alt. Az. Time Alt. Az. Time Alt. Az.
01 Jul 5.7 00:50:32 10° SW 00:55:58 31° W 01:01:28 10° NNW visible
01 Jul 4.3 23:29:58 10° SSE 23:35:56 47° E 23:41:59 10° NNE visible
02 Jul 6.7 01:18:04 10° WSW 01:21:11 14° W 01:24:19 10° NW visible
02 Jul 4.1 23:54:42 10° S 00:00:59 83° W 00:07:22 10° N visible
04 Jul 5.4 00:20:19 10° SSW 00:26:06 39° W 00:31:58 10° NNW visible
05 Jul 6.6 00:47:11 10° SW 00:51:18 18° W 00:55:26 10° NW visible
05 Jul 4.0 23:24:51 10° S 23:31:09 81° E 23:37:33 10° N visible
06 Jul 5.1 23:50:13 10° SSW 23:56:15 48° W 00:02:22 10° NNW visible
08 Jul 6.4 00:16:37 10° SW 00:21:25 23° W 00:26:16 10° NW visible
08 Jul 7.1 09:47:28 10° ENE 09:50:07 13° E 09:52:46 10° ESE visible
09 Jul 4.7 23:20:11 10° SSW 23:26:25 60° W 23:32:42 10° N visible
10 Jul 6.2 23:46:15 10° SW 23:51:34 28° W 23:56:56 10° NNW visible
